星链-2026 (STARLINK-2026 )

导读

STARLINK-2026是美国太空探索技术公司Starlink星链互联网卫星星座的一员,星链旨在为全球提供高速低延迟互联网服务。该卫星于2021年2月16日发射,进入近地轨道运行,属于星链组网批量发射任务中的卫星,助力星链星座完成全球覆盖部署,提升星座服务能力。

Basic Information
目录编号:
47644
目录名称:
STARLINK-2026
国际标识:
2021-012AA
轨道中心:
EARTH
卫星名称:
星链-2026
卫星全名:
星链-2026 (STARLINK-2026 )
卫星状态:
已陨落 最后检测时间 2024-10-04
发射日期:
2021-02-16 UTC
国别 :
美国 (US)
星等 :
--
Orbit Information
数据来源 国际轨道数据
星历时间: 2024-10-05T09:28:21+0800
轨道信息已过期661天
半长轴: 6536.701km
偏心率: 0.0003507
轨道倾角: 53.025°
近地点辐角 267.429°
升交点赤经 185.235°
平近点角 192.577°
近地点: 156.273km
远地点: 160.859km
周期: 87.659分钟
每日圈数: 16.427251
Detailed Information
固有亮度:
5
最大亮度:
2.5
卫星平台:
Starlink V1.0
覆盖范围:
全球
运营商:
太空探索技术公司
运营商所在国:
美国
制造商(研发单位):
太空探索技术公司
制造商所在国:
美国
使用方式:
暂无
Satellite Introduction
星链(Starlink)计划是由太空探索技术公司(SpaceX)提出的一个巨型低轨卫星互联网星座项目,计划在2019年至2024年间在太空搭建由约1.2万颗卫星组成的“星链”网络,其中1584颗将部署在地球上空550千米处的近地轨道,并从2020年开始工作。该卫星仍在工作。